Wind_Speed
6 5 7 9 12 15 16 17 17 17 18 19 17 14 11 8 8 6 7 11 11 9 11 13 13 14 15 15 17 18 19 21 23 25 26 26 25 25 25 25 24 25 25 25 28 29 26 22 20 19 19 17 13 10 8 7 6 6 7 8 9 9 9 8 7 6 6 6 7 8 8 9 10 10 11 12 12 12 13 14 16 17 17 17 15 13 15
5 4 5 7 11 13 16 18 19 18 19 20 18 16 14 11 8 5 4 11 12 6 6 11 13 16 18 18 20 21 21 22 24 26 27 26 25 26 27 25 24 26 28 28 28 28 24 21 20 20 18 16 12 9 6 5 6 7 9 11 11 9 8 8 7 7 7 8 8 8 9 10 10 11 12 12 13 13 14 16 17 17 16 16 15 14 16
7 5 4 6 9 11 14 17 18 18 19 19 18 17 15 12 11 7 4 8 8 3 6 11 15 18 20 20 21 22 24 25 25 26 26 26 26 27 27 25 25 28 31 29 27 27 24 21 20 18 17 14 11 8 6 5 8 10 12 12 11 8 6 7 7 7 8 8 8 8 9 10 11 11 11 12 12 13 14 16 17 16 15 15 15 14 15
7 7 6 7 8 10 13 16 18 20 18 16 16 16 15 13 13 11 8 8 6 6 9 12 15 18 20 20 22 24 25 26 27 27 26 27 28 27 26 27 29 30 29 27 25 25 23 21 19 16 15 13 10 8 7 9 12 14 13 12 10 7 6 7 7 8 8 8 8 8 9 10 11 11 10 11 11 12 13 14 15 16 15 15 14 12 13
7 8 7 6 6 9 11 11 13 17 17 15 15 14 13 14 13 11 9 8 5 10 13 13 15 17 19 21 24 25 25 27 27 27 27 28 27 25 26 30 33 30 26 25 24 23 21 20 18 16 14 12 9 8 9 12 14 14 13 11 8 8 7 7 7 8 8 8 8 8 9 9 9 10 10 10 11 11 12 12 12 14 15 15 14 12 11
6 8 7 7 8 8 5 1 1 5 9 13 14 12 12 13 11 6 3 3 8 14 14 14 15 17 19 21 24 24 26 27 27 27 28 27 26 28 31 32 30 27 26 24 23 22 19 18 19 16 14 11 9 9 12 14 14 13 11 10 9 8 8 7 7 8 8 8 8 8 9 9 9 9 10 10 10 10 11 10 10 11 13 14 14 13 12
6 8 8 8 8 5 1 1 3 3 2 4 6 7 9 12 10 6 4 5 10 12 12 14 16 17 19 21 22 23 26 28 27 27 28 27 30 35 35 31 28 26 25 23 21 20 19 19 18 15 12 12 11 12 14 15 14 12 10 10 10 9 8 7 8 9 9 8 8 9 9 9 9 10 10 11 11 11 11 11 11 11 11 12 13 13 12
6 7 8 7 4 3 3 2 2 3 4 4 5 5 8 11 11 10 10 8 9 11 13 15 17 19 21 21 21 23 26 28 29 30 29 29 33 36 34 30 28 27 25 22 21 22 22 20 16 13 13 14 14 15 16 14 12 11 10 10 10 8 7 7 9 10 9 9 10 10 10 10 11 11 11 11 11 12 14 16 16 14 12 14 15 14 12
5 7 8 5 1 3 4 3 5 7 5 7 9 6 9 12 12 11 10 9 11 14 15 18 20 22 20 16 17 23 26 27 29 30 29 30 32 32 29 26 27 25 22 22 23 24 21 17 14 14 15 15 16 17 16 13 12 12 11 11 9 7 7 9 11 11 10 10 11 11 11 11 11 11 11 11 11 13 16 19 20 18 18 20 20 19 16
5 7 8 6 5 6 4 3 7 9 4 5 7 5 6 12 13 12 12 13 15 16 17 22 24 21 14 9 12 23 27 26 25 25 27 32 35 33 28 26 25 24 24 26 26 23 19 16 15 16 16 16 17 18 16 15 14 13 11 10 9 9 10 11 11 11 11 11 11 11 11 12 11 11 11 11 12 15 18 19 20 20 20 21 22 22 22
6 7 8 7 6 5 4 5 7 9 5 4 6 5 7 12 16 16 14 15 17 18 22 27 25 16 11 9 14 24 28 27 26 24 26 31 32 29 27 28 29 28 28 29 26 21 18 18 17 17 16 17 17 17 17 16 14 12 12 12 12 12 11 12 12 11 11 11 11 12 12 12 11 11 12 13 15 17 18 18 19 19 19 20 21 22 24
8 8 7 6 4 3 6 6 7 9 6 4 7 8 7 11 19 21 19 18 20 23 27 28 22 14 10 11 20 29 29 27 28 29 29 28 26 26 29 32 33 30 29 28 25 22 20 19 19 18 17 17 16 16 16 15 13 14 14 14 14 14 14 15 15 12 11 11 12 12 12 12 12 14 16 18 19 18 17 17 17 18 19 20 22 22 22
8 9 7 5 3 3 5 7 9 9 6 4 8 6 1 6 18 23 22 23 24 27 29 26 18 9 6 14 29 34 30 29 30 29 31 31 29 31 34 34 33 31 29 27 24 22 20 20 19 19 18 17 16 16 16 15 15 16 15 14 15 15 16 17 15 12 12 12 12 13 16 17 17 18 19 19 19 18 17 17 18 19 19 19 20 21 21
8 8 7 6 2 2 5 10 10 7 5 4 3 1 3 3 13 19 20 22 23 25 27 21 13 9 13 25 36 34 30 33 32 29 33 37 36 36 36 33 32 32 29 26 23 22 21 20 19 18 17 17 17 17 18 17 17 16 16 16 17 18 18 19 17 15 14 13 12 15 19 20 19 19 19 18 18 18 18 18 19 19 18 18 18 19 19
7 7 8 7 3 3 10 14 9 4 4 1 4 3 1 4 11 15 17 19 21 24 24 16 13 17 24 30 35 32 31 35 35 34 37 39 38 37 36 34 33 32 29 26 24 23 21 20 18 17 16 17 19 19 19 19 18 18 18 18 19 19 19 20 20 19 16 13 13 16 18 18 18 18 17 17 17 17 16 17 17 17 17 17 17 17 16
7 8 7 3 1 6 13 11 4 2 2 4 7 5 1 5 10 13 15 17 21 24 21 17 18 23 27 30 32 33 34 37 38 38 39 39 39 38 36 35 33 30 28 27 25 24 22 20 18 17 16 18 20 20 19 19 19 19 19 19 19 20 21 22 22 21 17 15 15 17 17 16 17 17 17 16 16 15 15 15 15 15 14 14 14 14 14
4 2 2 1 2 4 8 5 5 3 1 1 4 5 1 5 10 12 13 18 22 23 20 20 21 24 28 29 30 32 36 39 40 40 41 41 40 39 37 34 31 28 27 27 26 24 22 20 19 17 16 17 20 20 20 20 20 20 20 20 20 21 22 22 21 20 18 17 16 16 16 15 15 15 15 15 14 14 14 14 14 13 13 12 12 13 13
3 2 3 3 1 4 5 3 4 4 1 2 1 2 1 5 8 11 13 18 22 22 22 22 22 24 28 29 29 32 37 41 42 43 43 42 39 38 36 33 30 28 28 27 26 24 22 20 19 18 17 16 18 20 21 20 20 20 20 21 22 22 21 20 19 18 17 16 16 16 16 15 14 14 13 13 13 13 13 14 13 12 12 11 11 12 12
4 3 4 4 2 4 5 4 2 2 0 3 3 2 3 6 8 11 14 18 21 21 22 24 24 25 29 31 30 34 41 44 45 45 45 43 40 37 35 32 31 30 29 28 26 25 23 20 19 19 19 18 18 20 21 20 20 20 21 21 22 21 20 18 17 16 16 15 15 15 14 14 13 13 13 12 12 12 12 11 11 11 11 12 11 12 11
3 1 4 4 3 4 5 5 3 1 1 3 3 3 4 7 9 11 15 20 22 21 23 26 27 27 30 32 33 38 45 48 49 48 47 45 39 34 32 33 32 30 29 28 27 25 23 21 20 20 20 20 20 21 20 19 20 20 21 21 20 19 18 16 15 15 15 15 14 13 12 12 13 13 13 13 14 14 14 12 10 10 11 12 12 12 11
3 1 4 5 4 4 6 7 5 2 2 4 5 6 7 10 11 13 16 20 22 23 25 28 29 28 29 31 36 43 48 50 50 49 46 42 37 33 33 33 31 30 29 28 28 26 24 22 22 21 21 21 21 21 20 19 19 21 21 20 18 17 16 16 15 15 14 14 13 13 13 14 15 16 16 16 16 17 17 16 16 14 13 12 13 12 12
3 1 3 6 2 1 6 9 8 5 4 5 7 8 10 12 13 15 17 20 22 25 27 29 29 29 28 32 40 48 51 50 50 47 42 37 34 35 35 32 30 29 29 28 28 26 24 23 23 23 23 22 21 19 19 19 19 20 21 19 17 16 16 15 15 14 13 13 13 13 14 16 18 20 20 20 19 20 19 19 19 18 17 16 16 14 13
1 3 3 3 2 4 5 8 8 6 5 6 8 9 10 12 14 16 19 22 25 28 28 27 29 30 31 37 46 50 51 49 47 43 39 36 36 36 35 32 30 30 29 29 28 27 25 24 24 24 23 22 20 19 18 18 19 19 19 17 16 15 14 14 14 14 13 13 14 14 15 17 19 20 21 22 21 21 20 20 19 19 19 18 18 17 15
3 3 3 4 4 5 6 7 7 6 6 6 8 8 10 12 14 17 21 24 28 31 28 24 26 31 36 43 50 52 50 48 45 41 37 38 39 37 34 31 31 31 30 30 29 27 26 25 24 24 23 21 19 18 18 18 18 17 16 15 14 14 14 15 15 13 13 14 15 15 15 15 15 16 18 19 19 19 19 19 18 18 18 18 17 17 17
2 2 4 5 6 8 8 7 6 5 5 6 7 9 11 13 14 18 22 25 29 31 28 23 23 30 38 46 51 50 45 41 40 40 39 39 38 35 32 31 32 31 30 30 29 27 26 25 25 24 22 20 19 18 17 17 17 15 14 14 14 14 15 16 15 14 14 15 15 15 14 13 13 12 13 14 15 17 17 18 17 17 17 17 16 16 16
2 4 6 8 9 9 8 6 6 5 5 6 8 10 11 14 15 18 23 27 28 29 28 26 25 29 38 47 50 47 43 39 39 41 42 41 38 34 32 33 34 32 30 30 28 27 26 26 25 23 21 20 19 17 17 17 16 15 14 13 13 14 16 16 15 15 15 15 14 13 12 12 11 11 11 10 11 11 12 13 14 14 15 16 16 16 16
6 7 6 7 7 6 5 5 6 6 6 7 9 11 12 14 16 19 22 26 28 28 29 30 30 33 40 46 47 45 43 42 41 42 43 42 39 36 35 36 35 33 33 31 29 28 27 26 24 22 21 19 18 17 17 17 15 14 13 12 14 17 18 17 15 14 14 14 13 13 12 12 11 11 10 10 9 9 9 9 9 9 11 13 15 16 16
6 4 3 3 4 6 6 7 8 7 6 7 10 12 13 15 17 20 23 25 27 28 28 29 33 37 41 43 43 43 41 39 38 40 42 42 39 37 36 35 33 32 33 33 32 30 28 25 23 21 20 19 19 18 17 16 15 14 13 12 14 18 19 16 14 14 14 14 12 12 11 11 11 10 10 10 9 9 9 8 8 8 7 7 10 13 14
3 3 4 4 6 8 9 9 8 8 7 8 10 13 15 16 17 20 23 25 27 29 28 29 33 37 39 39 41 44 43 41 39 39 39 39 37 35 33 32 32 31 31 31 31 29 26 24 22 21 20 19 19 18 17 16 15 14 13 13 15 17 16 15 15 15 14 12 12 13 13 12 10 10 9 9 8 8 7 7 6 6 5 4 4 7 9
5 6 8 9 9 9 9 8 8 8 8 10 12 13 15 17 19 22 25 27 28 30 30 31 33 35 37 38 40 42 44 43 40 38 37 37 36 35 34 33 34 34 33 31 29 27 25 23 21 21 20 20 19 17 17 16 15 14 13 14 15 16 16 16 16 14 13 13 15 15 13 10 9 9 8 8 8 7 7 6 5 4 4 4 3 3 4
9 10 11 10 9 7 7 7 8 9 9 11 13 14 15 19 22 25 27 28 29 30 31 32 33 34 38 41 42 43 43 40 38 38 38 37 36 36 35 35 35 34 32 29 28 26 24 22 21 20 20 20 19 18 17 16 15 15 14 14 15 18 20 19 16 13 13 15 15 13 10 8 8 8 8 7 7 6 5 4 4 3 2 2 2 3 3
12 11 9 8 7 6 6 7 8 10 11 12 13 14 16 20 24 27 28 29 30 31 32 33 34 36 40 43 43 43 42 40 39 39 39 37 36 36 35 35 34 32 29 27 27 26 24 22 21 21 20 20 19 17 17 16 16 15 14 14 16 20 22 19 15 13 13 14 12 10 8 8 8 7 7 6 5 4 3 3 2 1 1 1 1 2 3
9 7 6 6 5 5 7 8 8 10 11 11 12 15 18 21 24 26 28 30 30 28 27 31 36 39 41 42 44 45 44 42 41 40 38 37 36 35 34 33 31 28 26 26 25 24 23 22 21 21 21 20 18 17 17 17 16 15 15 15 16 19 20 18 14 13 13 12 10 9 8 8 7 6 6 5 4 3 2 1 1 1 1 2 2 2 3
3 2 4 5 3 4 8 10 10 10 10 10 13 17 20 22 24 26 28 31 32 29 27 32 38 40 40 43 45 45 44 43 42 39 37 37 37 35 34 31 28 25 25 26 24 23 22 21 21 22 22 20 18 18 18 17 16 16 16 16 16 17 17 16 14 13 11 10 9 9 8 7 6 6 5 4 3 3 2 2 2 2 3 3 3 4 5
4 4 5 4 2 5 10 12 11 11 11 11 14 18 19 21 24 26 27 30 32 32 32 34 37 37 39 43 45 43 42 42 39 36 36 37 37 36 34 32 28 26 25 24 22 21 21 21 22 23 23 20 19 19 19 18 17 16 16 16 16 16 15 14 12 11 10 9 9 8 8 7 6 5 5 4 4 3 3 4 4 4 5 5 4 5 7
5 6 5 4 4 7 10 11 12 13 12 12 14 17 18 19 22 24 26 28 30 30 31 33 34 35 38 42 42 41 41 40 36 35 37 38 37 36 35 33 29 26 24 22 21 20 20 22 24 25 23 21 20 21 21 19 17 16 16 16 15 14 13 12 11 10 9 8 8 8 8 8 8 7 6 5 5 5 5 5 5 5 6 6 6 6 7
6 5 5 6 7 9 10 10 11 13 13 13 14 15 17 19 21 23 24 25 27 28 30 32 33 35 37 39 40 40 39 37 34 35 38 37 35 35 33 30 27 25 23 22 21 20 20 23 25 25 23 21 21 22 23 21 17 16 16 15 13 12 12 11 10 9 9 9 8 8 8 8 8 8 7 7 6 6 6 6 6 6 6 7 7 7 7
8 7 6 7 8 8 9 9 10 11 12 14 15 15 16 19 22 24 24 24 24 26 28 31 33 35 37 39 40 39 36 34 34 36 37 35 33 33 30 27 25 24 21 21 22 20 19 22 25 24 22 21 21 23 25 24 19 16 15 13 12 11 11 10 10 9 9 9 8 8 8 8 8 8 8 7 7 7 6 6 6 6 7 7 7 7 7
10 9 8 8 8 8 8 8 8 8 9 12 14 15 16 19 21 23 25 25 25 25 28 31 34 35 37 39 38 35 33 34 35 36 35 32 31 29 26 23 22 21 19 20 21 20 20 23 25 24 22 21 21 23 25 25 20 15 13 12 11 11 10 10 10 9 9 9 9 8 8 8 8 8 8 8 8 8 7 7 8 8 8 8 8 7 7
10 11 10 9 9 9 9 8 9 8 8 10 12 14 15 18 20 21 22 23 25 26 28 30 33 34 36 36 34 33 34 35 35 34 32 31 28 25 22 20 19 18 18 20 21 20 22 26 26 22 21 22 21 21 23 23 19 14 12 11 11 10 10 10 9 9 9 9 9 9 9 9 9 9 9 9 8 8 8 8 9 9 8 9 8 8 8
11 13 12 9 8 8 8 8 8 8 8 9 11 13 14 17 19 20 21 23 25 26 27 29 31 33 33 33 32 33 34 34 33 31 31 30 27 24 21 20 19 18 19 21 21 21 24 27 25 21 20 21 20 19 20 20 17 14 12 11 11 11 10 10 10 10 9 9 9 9 9 9 9 10 10 10 10 10 10 9 9 10 10 10 10 9 9
12 14 12 10 9 9 8 8 8 8 8 9 10 12 14 16 18 19 20 22 24 25 26 28 30 32 32 33 33 34 33 32 31 30 31 30 27 23 20 20 20 20 21 22 23 24 28 28 24 19 19 20 19 19 19 18 16 14 13 12 11 11 11 10 10 10 10 10 10 11 11 11 11 11 11 11 11 11 11 11 11 11 11 11 11 11 11
12 13 12 11 10 10 9 8 8 9 10 10 10 12 14 15 16 18 20 21 23 25 27 29 30 30 31 31 32 32 32 32 32 32 30 28 24 19 18 19 21 21 21 23 25 26 27 26 21 19 19 19 18 18 17 15 14 14 13 12 12 11 11 11 11 11 10 11 11 11 11 12 12 12 12 12 12 12 12 12 12 12 12 12 13 12 12
13 13 12 12 12 11 10 9 9 10 11 11 12 13 14 15 16 17 19 21 22 24 26 29 30 30 30 30 31 32 33 34 34 33 30 26 21 17 17 20 22 22 22 24 24 24 23 21 20 20 20 19 18 16 15 14 13 13 13 12 12 12 11 12 12 12 12 12 12 11 12 12 13 13 14 14 14 14 14 13 13 13 14 14 14 14 14
12 12 12 12 12 12 11 10 10 11 12 12 12 13 14 15 15 16 18 21 23 24 25 27 28 29 29 30 32 33 33 33 33 32 31 29 24 20 19 22 24 23 23 23 22 20 19 19 20 20 19 18 17 16 15 14 13 13 12 12 12 12 12 13 13 14 14 14 13 13 13 13 13 13 14 14 14 15 15 15 15 15 15 15 15 15 15
10 10 10 11 12 13 12 12 11 11 12 13 13 13 14 14 14 15 17 20 22 24 24 25 25 26 28 30 31 31 31 31 31 30 29 28 24 21 21 24 25 23 22 21 20 18 19 20 20 19 18 18 18 17 15 14 13 13 13 13 13 13 13 13 14 14 15 15 14 14 14 14 14 13 13 14 14 15 15 16 16 17 16 16 16 16 17
10 10 10 11 12 13 14 13 12 12 12 13 13 13 14 14 14 15 16 18 20 22 23 24 24 26 28 30 30 30 31 32 31 29 26 24 21 20 22 24 23 23 22 21 19 18 19 20 19 18 18 17 16 15 15 14 14 14 14 14 14 14 13 13 13 14 14 14 14 15 15 16 16 15 15 15 16 16 16 17 17 17 17 17 17 18 18
10 11 11 11 12 12 13 14 13 12 13 14 14 14 15 15 15 15 16 18 20 21 22 23 25 26 27 29 29 29 29 31 32 30 27 24 22 22 23 24 22 21 21 21 20 20 20 19 19 18 17 16 15 14 14 14 15 15 15 15 15 14 14 13 13 12 13 13 14 14 15 16 16 16 16 17 17 17 17 18 18 18 18 18 19 19 20
11 11 11 12 12 13 14 14 14 13 14 15 16 16 16 17 16 16 17 18 20 21 22 23 24 24 24 26 27 26 26 26 28 28 27 24 21 21 22 22 21 20 20 20 20 21 20 19 18 18 17 15 14 13 13 13 13 14 15 15 14 14 14 13 13 12 12 12 13 13 14 14 15 15 16 16 17 17 18 18 19 19 20 20 21 21 22
11 11 12 13 14 15 16 15 13 12 14 16 16 17 18 18 18 18 18 18 19 20 21 22 22 22 22 23 24 24 23 22 23 24 24 22 19 18 19 20 21 21 21 20 20 20 20 19 18 17 16 15 13 13 12 13 13 13 14 14 14 14 15 15 15 15 15 15 15 15 14 14 14 15 16 17 17 19 20 20 21 22 23 24 24 24 25
12 11 11 11 13 15 15 13 12 12 14 15 17 18 19 19 20 21 20 20 20 21 22 23 23 23 23 24 24 24 23 23 22 22 23 22 20 19 19 21 21 21 21 20 19 19 19 19 18 17 15 14 13 13 12 13 13 13 13 13 14 14 15 16 17 18 17 18 18 18 17 17 17 17 18 19 20 21 23 24 24 25 25 25 24 24 24
11 11 10 10 12 13 13 11 11 12 14 15 17 18 19 20 20 21 21 21 21 21 23 25 26 26 25 25 24 24 25 25 24 22 20 20 20 20 20 21 22 21 21 21 20 18 18 18 19 18 16 14 13 13 13 13 13 13 12 12 13 14 15 15 16 17 17 17 18 18 19 19 19 20 20 21 22 23 24 24 24 24 24 23 22 22 22
Wind_Direction
195 184 160 173 192 197 198 202 205 206 205 208 212 216 221 220 222 220 185 188 209 205 177 167 165 164 162 160 156 149 148 153 151 147 146 145 145 147 147 148 149 145 142 142 140 135 131 132 137 145 152 152 146 139 134 126 119 114 113 115 112 107 105 107 110 107 94 84 81 76 74 74 71 66 63 61 60 58 56 57 57 55 53 51 50 47 44
187 175 161 181 198 202 204 206 208 208 208 209 209 212 214 212 220 238 190 191 207 213 169 159 154 157 158 153 152 149 147 150 152 149 148 147 146 147 147 146 145 142 141 142 140 138 137 139 140 145 151 151 147 145 143 136 124 116 119 122 121 119 109 98 99 97 88 84 81 78 77 73 69 65 63 63 61 59 58 59 59 57 53 52 51 48 45
179 179 181 188 203 211 212 212 213 211 210 210 208 209 210 209 215 226 226 205 195 136 121 143 145 152 155 152 153 153 152 154 154 151 148 147 147 148 146 142 141 143 145 146 146 144 141 138 138 143 150 151 146 143 142 140 132 126 127 130 130 129 116 96 93 93 89 86 81 78 76 70 69 68 65 64 63 61 61 61 61 58 55 53 52 49 45
180 181 197 193 200 215 218 218 215 211 211 209 208 211 208 207 211 210 216 226 202 146 133 141 150 159 160 158 160 159 159 159 155 152 151 150 148 147 144 142 144 146 148 148 148 147 142 139 141 146 152 151 146 142 140 139 139 137 135 134 132 126 112 94 91 94 92 88 83 80 77 73 72 71 68 69 66 65 65 63 60 58 55 52 51 48 45
174 174 194 194 194 210 218 221 216 212 213 210 208 210 203 203 212 209 213 229 189 147 147 152 164 172 170 167 167 165 163 161 157 154 153 151 148 145 144 147 149 149 147 147 151 152 146 144 150 152 152 152 146 140 142 143 143 140 136 133 130 124 114 103 98 97 94 91 88 85 82 79 79 76 74 74 70 68 67 64 60 57 54 52 50 47 44
177 168 178 191 202 209 208 231 310 221 215 210 206 202 195 200 209 208 220 210 150 149 160 167 174 180 176 170 169 167 164 161 159 157 154 151 147 143 142 147 152 152 150 151 154 152 145 148 154 150 147 151 148 141 144 146 143 139 136 133 130 125 119 108 98 94 93 94 92 89 88 86 85 82 78 75 73 70 66 63 60 57 52 49 48 46 44
184 166 175 197 206 206 173 54 28 50 109 185 197 194 194 198 197 194 208 184 156 157 165 166 169 173 167 162 163 167 166 164 161 158 156 153 149 146 147 151 154 155 155 153 151 151 153 155 153 143 137 144 147 145 146 146 143 138 135 132 130 126 119 108 100 96 95 97 94 91 91 90 88 84 79 76 74 70 68 66 62 58 54 50 47 45 45
180 174 194 203 181 128 130 136 119 113 116 147 169 193 207 201 197 203 205 184 157 154 154 156 161 159 155 155 161 166 168 168 166 162 160 159 155 153 155 154 153 155 155 152 151 157 160 155 146 141 142 145 148 148 147 145 142 137 134 132 128 124 118 111 104 99 98 99 97 95 93 91 88 84 80 79 76 71 69 67 63 59 56 53 50 47 46
196 195 199 199 166 169 169 156 170 173 167 172 182 209 213 197 195 200 190 164 152 151 148 149 150 147 147 153 165 170 171 172 170 165 163 161 157 156 156 153 151 152 150 150 155 157 154 148 144 147 150 152 152 149 145 143 142 138 134 130 124 122 122 113 102 101 104 104 100 97 95 91 88 85 82 81 80 75 73 70 66 61 56 54 52 50 48
209 213 203 201 219 208 178 113 155 167 168 179 190 225 215 186 185 190 179 162 156 151 146 147 146 144 149 159 173 177 176 174 169 163 160 160 159 158 155 151 149 148 150 157 161 155 147 145 148 151 155 157 155 150 146 145 143 140 135 130 128 129 122 109 104 107 107 104 100 97 95 92 89 87 85 83 82 79 76 73 70 66 62 58 57 53 51
203 216 210 208 214 187 120 95 136 153 152 155 175 225 219 182 177 183 178 165 158 154 153 154 152 154 167 178 178 177 176 174 168 157 152 157 159 157 155 155 156 155 158 163 163 157 149 147 148 152 156 156 154 151 149 146 143 140 136 131 130 129 119 109 108 109 104 101 100 96 94 94 90 89 87 85 84 81 77 74 73 71 68 65 63 60 56
207 215 216 215 214 127 93 95 129 142 139 148 184 208 204 168 169 177 177 170 163 159 159 161 165 175 188 185 175 170 167 165 161 156 154 154 151 150 156 162 161 159 159 161 160 156 152 149 150 152 152 151 152 151 147 144 143 138 132 129 129 125 119 114 112 108 103 100 98 96 95 94 92 91 89 85 84 82 80 80 78 75 73 69 65 63 59
208 214 220 211 179 94 96 117 131 139 146 181 197 196 151 160 173 176 177 173 166 163 166 172 180 190 181 161 160 160 158 156 154 156 160 160 156 158 163 163 160 158 158 158 155 154 154 153 152 152 152 153 152 148 142 139 136 132 129 131 131 126 122 118 113 107 103 100 98 97 97 95 93 92 89 85 84 83 82 82 81 77 74 69 65 63 59
206 211 223 215 179 87 117 124 125 150 183 188 186 144 3 212 182 174 174 172 165 167 175 179 178 151 130 143 152 155 160 160 157 156 159 161 161 162 162 159 158 158 157 155 155 156 156 155 152 152 156 154 145 139 137 134 131 131 131 132 130 126 122 119 114 109 106 102 100 99 98 96 93 90 88 86 85 84 82 81 80 78 75 72 67 63 59
207 207 216 221 210 155 148 135 127 195 217 46 7 345 340 195 177 169 170 169 167 173 177 171 149 130 130 144 153 154 160 166 165 164 163 162 161 160 158 159 160 158 155 155 157 156 152 150 148 150 153 146 139 138 138 135 134 133 132 129 128 126 122 119 116 112 108 103 102 101 99 96 93 90 88 86 85 84 82 79 78 75 74 71 68 64 59
209 210 207 222 66 144 158 147 119 213 174 40 356 340 27 167 172 169 169 170 174 179 172 153 139 135 138 149 152 150 156 166 167 166 165 162 160 159 160 161 161 158 155 155 154 150 147 144 143 146 149 144 142 143 139 136 135 133 131 130 129 126 123 120 115 111 108 105 104 103 99 94 92 91 89 87 86 84 81 79 77 74 72 69 65 62 58
202 221 169 41 36 137 155 120 49 45 126 31 342 346 36 166 174 175 176 175 178 177 162 143 138 139 144 152 151 147 154 163 164 163 163 161 160 161 162 161 159 157 155 154 151 145 143 141 140 145 152 150 147 144 138 135 135 133 131 131 128 125 122 119 116 113 112 110 108 105 100 95 92 89 87 86 85 83 80 78 76 73 71 68 66 62 58
137 91 94 100 136 164 158 120 54 34 303 209 239 317 235 176 175 180 180 175 171 166 151 142 140 141 146 151 150 147 152 159 161 160 160 160 160 161 160 157 156 154 153 152 148 143 140 141 143 148 153 153 150 144 137 135 134 134 135 134 129 125 121 118 116 115 112 110 107 104 100 95 91 89 88 87 83 78 76 74 73 73 71 67 64 60 56
174 181 127 115 154 180 176 171 114 38 330 186 192 241 215 177 173 173 168 164 162 157 150 148 145 144 149 153 150 149 155 159 159 158 159 160 160 159 158 157 155 155 153 150 146 142 140 142 146 150 152 153 149 142 136 135 136 137 138 136 130 126 123 121 120 118 115 111 106 99 94 90 87 86 86 88 89 87 80 73 69 68 68 67 64 60 55
187 155 103 119 186 203 192 191 175 119 150 176 182 194 181 171 171 166 162 165 164 158 155 155 150 148 153 155 152 154 158 159 159 160 162 161 158 155 156 157 156 155 152 150 146 142 140 142 146 149 150 148 143 137 134 135 137 138 138 134 129 126 125 124 123 121 117 112 106 102 102 101 98 95 90 88 94 98 96 93 87 77 71 69 64 59 57
204 158 140 162 186 191 186 194 202 182 159 166 168 167 163 162 165 164 165 167 165 162 162 161 156 153 154 154 154 157 159 160 162 164 163 160 159 158 157 157 157 155 153 151 146 142 140 143 145 147 146 142 137 134 134 137 140 140 137 132 129 128 128 125 124 121 116 111 106 105 109 114 114 111 104 97 95 95 94 94 94 91 87 83 76 68 67
213 133 147 164 167 119 160 181 196 194 169 160 159 159 160 161 164 165 162 160 161 166 170 167 160 154 152 156 160 160 161 162 164 162 159 157 159 160 158 155 156 156 154 151 147 143 142 144 145 145 143 139 136 136 137 139 142 141 135 131 130 129 127 127 126 122 119 116 111 107 108 111 111 107 104 101 99 96 92 89 88 87 86 86 85 81 75
314 26 73 127 60 52 111 152 171 169 155 154 158 160 163 164 163 162 159 158 161 166 168 167 163 159 158 162 163 162 161 163 162 160 160 159 159 158 157 155 155 156 154 152 148 145 144 145 146 145 142 140 139 140 140 141 142 139 134 132 132 131 130 131 129 126 123 121 119 116 114 111 107 104 102 100 97 95 92 88 85 83 80 79 79 80 77
349 32 55 63 53 73 109 131 139 134 134 153 163 162 161 161 162 161 162 166 170 168 162 159 166 172 171 169 166 164 162 162 161 160 161 162 161 159 157 156 155 155 155 152 149 147 146 146 146 145 144 144 144 143 142 143 142 138 136 135 135 136 136 134 129 127 127 126 125 124 121 116 111 107 103 99 96 93 90 87 84 81 78 76 73 73 72
354 70 67 71 81 98 115 126 124 118 128 151 160 156 155 158 159 159 162 169 172 170 163 156 166 180 180 173 167 162 158 157 159 160 159 159 159 157 154 155 157 156 154 153 150 148 148 147 146 146 147 148 147 145 146 146 143 141 140 137 135 139 139 135 130 130 129 128 128 127 125 123 121 116 110 105 100 95 89 85 81 78 77 76 73 71 69
105 103 96 101 100 96 105 124 132 127 130 144 149 147 149 154 154 157 164 170 172 172 171 166 164 172 175 171 166 162 157 157 160 162 161 160 158 155 155 159 160 157 153 152 150 149 149 148 148 148 149 150 150 147 146 146 145 141 138 135 138 143 142 137 134 133 131 131 131 128 126 125 125 123 121 119 114 107 98 89 81 77 74 72 71 69 66
123 116 109 107 102 91 86 106 128 133 130 139 145 145 146 148 149 156 166 172 174 177 180 178 173 168 167 167 166 164 162 162 161 161 162 162 161 160 163 166 165 160 157 154 152 151 150 150 149 149 151 152 151 148 147 147 145 141 138 139 146 148 144 139 137 137 137 136 134 130 126 123 122 121 120 120 120 119 114 107 99 91 81 73 68 66 65
119 106 75 77 110 115 103 104 121 131 130 135 145 149 148 148 153 163 169 173 175 176 176 178 178 172 166 165 165 164 164 164 162 161 163 165 165 167 169 169 166 162 159 157 154 153 152 151 151 151 152 153 152 149 148 147 145 142 136 136 144 147 143 139 140 140 138 135 133 132 130 126 123 120 118 118 117 114 112 111 109 106 101 80 56 48 51
93 75 71 89 117 125 116 113 123 131 133 141 148 151 151 148 152 163 169 170 172 171 168 170 173 172 168 167 165 164 166 168 168 165 165 166 166 167 167 165 161 158 157 157 156 154 153 152 153 154 154 154 153 151 150 149 146 143 138 137 142 145 143 142 143 141 137 140 144 141 133 127 125 123 120 119 117 114 114 114 109 103 105 95 48 30 32
87 94 102 108 117 122 118 121 135 140 141 148 149 148 151 152 154 158 164 167 169 169 167 167 170 173 174 171 167 166 168 171 170 167 165 166 167 166 165 163 160 159 160 160 159 158 157 156 157 157 157 156 155 153 152 151 148 144 140 138 142 148 148 145 144 141 140 147 148 140 130 126 129 129 127 123 120 116 113 111 108 102 94 88 78 55 28
103 102 105 109 115 123 127 134 145 145 144 151 152 149 154 162 162 159 161 165 168 168 167 168 172 176 175 171 169 171 171 169 168 167 167 168 169 167 164 164 164 162 162 162 162 162 161 160 161 162 160 158 157 155 153 152 149 146 142 142 150 158 154 145 140 141 144 145 144 139 135 138 139 136 132 129 126 125 121 112 106 103 91 74 62 49 31
112 107 110 113 117 133 143 145 149 151 150 153 155 155 161 169 170 165 163 167 170 170 169 172 175 175 170 167 169 172 171 168 169 170 169 169 170 168 166 167 166 163 162 163 164 165 164 163 165 166 163 160 159 158 156 153 151 149 146 146 155 159 152 142 138 146 149 148 148 149 148 148 146 144 144 142 138 137 137 128 114 96 70 39 27 21 6
120 118 133 135 133 149 156 153 153 156 156 154 156 161 168 174 175 173 172 172 170 165 164 169 173 173 171 169 170 171 171 171 171 171 170 170 170 168 168 167 166 163 164 166 167 167 166 167 168 168 166 164 162 161 159 155 152 151 148 147 151 155 151 145 145 152 154 154 158 160 159 158 159 159 159 160 162 165 168 177 211 273 308 323 321 309 322
79 106 147 148 155 176 169 160 155 154 154 157 163 170 176 178 178 178 179 178 173 168 167 172 174 175 174 173 172 172 173 172 170 171 172 171 168 167 168 168 166 165 167 168 169 169 170 171 171 170 168 167 166 164 162 157 154 153 151 149 151 155 155 153 154 157 160 164 168 169 171 173 176 179 182 185 193 205 225 248 266 280 292 300 294 291 306
79 103 127 127 136 168 165 161 157 153 154 163 173 178 181 182 182 182 181 179 178 177 177 177 176 176 176 176 175 174 173 171 170 172 172 168 166 167 170 170 168 168 168 169 171 172 173 175 174 171 169 169 169 167 164 160 158 157 154 153 154 156 159 162 164 166 170 175 176 180 184 188 194 200 204 210 223 235 243 256 270 278 284 291 292 289 296
113 122 119 106 121 148 155 156 157 156 157 167 176 179 180 183 184 181 177 176 179 180 179 178 177 177 178 178 176 174 173 172 172 171 168 165 167 170 171 171 171 169 167 169 174 175 176 179 179 174 170 171 171 169 166 162 161 161 158 157 159 161 165 171 175 179 184 188 189 194 202 207 211 216 220 228 239 245 250 261 271 275 278 283 287 284 286
131 136 119 111 129 149 154 155 160 165 166 167 171 175 178 180 180 177 176 179 181 178 176 175 176 177 178 178 176 175 174 174 172 169 166 166 169 171 171 171 171 169 168 172 174 173 176 183 185 181 174 170 171 172 169 163 161 164 164 164 166 170 174 179 185 190 196 200 201 206 213 217 220 224 229 235 241 247 256 265 271 276 279 281 282 280 277
135 134 122 119 131 147 155 159 168 175 174 172 174 178 180 180 178 175 176 179 179 176 176 178 177 177 177 177 176 176 176 175 170 166 166 169 172 172 172 173 174 173 175 177 175 173 178 184 184 179 174 170 171 174 172 165 161 165 170 172 175 180 183 189 195 198 201 204 206 209 215 220 224 228 231 234 240 248 257 264 270 277 280 280 280 280 274
145 138 129 122 125 135 145 152 161 172 177 178 178 178 180 182 182 181 180 179 178 178 179 180 178 176 176 175 175 176 176 173 168 167 169 172 173 171 171 173 174 175 178 178 175 176 181 180 175 171 171 170 171 174 175 170 165 168 175 180 186 190 192 195 199 201 204 208 212 216 221 225 229 233 236 239 244 249 255 264 271 275 278 277 277 278 274
155 148 141 133 129 133 139 143 148 159 173 179 177 176 179 182 183 184 183 181 179 179 180 179 177 177 176 176 176 176 173 170 169 170 171 170 167 165 167 169 171 177 182 180 176 177 178 172 167 166 169 170 169 174 178 176 174 177 186 190 192 196 198 201 203 206 209 212 216 221 226 230 233 236 238 242 247 250 255 263 268 270 272 273 272 273 272
163 162 158 149 140 139 141 143 148 157 168 175 175 176 179 179 179 179 180 178 177 178 179 178 177 176 175 176 175 173 170 170 171 172 170 167 163 163 165 166 169 176 182 178 174 173 170 165 163 165 169 169 171 176 180 180 182 189 197 199 200 203 207 209 212 216 219 221 224 228 230 232 236 238 240 244 249 252 256 261 265 268 271 271 270 270 269
167 169 165 158 153 152 148 150 157 163 167 172 174 174 176 178 176 175 178 179 178 177 177 177 176 176 175 174 173 171 170 171 171 170 170 171 169 166 165 167 170 176 178 174 171 170 166 163 164 168 170 171 176 180 181 182 188 198 205 208 210 212 215 218 221 225 229 231 234 236 237 238 240 242 243 246 250 254 258 262 265 268 270 270 269 269 268
166 168 169 168 167 161 153 152 160 164 165 170 174 175 177 179 177 176 179 180 177 176 177 177 177 177 175 172 171 172 172 173 171 170 172 174 173 168 167 167 168 171 171 169 168 169 169 169 173 177 176 177 182 184 183 187 196 204 209 211 213 216 220 225 228 232 235 237 238 241 242 243 245 247 249 251 254 257 259 262 265 268 270 271 270 268 267
163 170 178 179 172 162 155 155 158 158 160 166 172 176 179 180 178 177 178 176 175 177 178 176 177 178 177 174 174 176 176 174 172 172 172 172 171 169 172 172 170 169 170 170 170 172 175 180 186 188 185 185 187 186 187 194 202 207 210 214 218 222 229 235 238 240 242 242 243 245 246 248 250 251 253 254 256 258 261 263 266 269 272 273 271 268 266
163 173 183 181 172 165 161 159 157 156 155 159 166 176 181 181 179 179 179 178 178 178 178 177 179 180 179 176 177 179 178 176 175 175 176 175 172 171 176 178 175 173 174 176 177 180 184 189 193 195 194 193 192 192 194 201 208 213 217 222 227 232 238 242 244 245 245 245 247 249 251 253 254 255 256 257 258 260 262 264 266 270 273 274 272 269 267
158 171 180 176 171 169 168 164 162 162 159 156 160 170 178 181 180 182 184 186 185 184 182 182 181 179 177 178 180 180 179 179 179 180 183 182 179 179 184 186 181 177 178 181 183 188 193 196 197 196 194 195 197 200 205 212 218 222 226 230 234 239 244 247 248 247 246 246 247 250 252 254 255 257 259 261 261 263 264 265 267 271 273 273 271 270 269
161 171 174 173 174 177 175 170 168 170 168 164 163 168 173 176 178 179 180 183 185 185 184 184 182 179 179 181 181 180 180 181 182 184 187 188 187 190 195 194 188 186 187 188 190 194 199 201 198 194 194 198 202 208 215 222 226 229 233 235 237 240 244 246 246 246 245 245 247 251 254 256 257 259 262 263 264 265 266 267 267 269 271 272 272 271 270
164 169 172 175 178 179 174 170 171 176 177 175 173 172 171 173 175 177 178 182 185 185 183 182 182 182 183 182 182 182 182 182 183 186 190 191 192 198 201 199 195 194 196 196 197 199 200 198 196 195 197 203 208 214 221 228 232 233 234 235 235 238 241 244 245 245 245 246 249 254 256 258 259 261 262 263 265 266 266 267 268 270 271 272 272 272 272
162 167 172 175 175 172 170 170 173 177 179 180 180 179 175 173 174 176 180 184 186 186 186 186 185 185 185 185 186 186 186 186 188 191 193 192 193 199 203 201 199 197 195 196 198 198 196 194 196 200 203 207 212 218 224 230 232 233 232 232 233 236 240 241 242 244 246 248 252 255 258 260 261 262 263 264 267 268 268 268 269 270 271 272 273 274 274
166 170 174 175 173 172 171 172 174 176 177 179 182 182 179 176 175 175 178 181 183 185 188 190 190 188 187 187 187 188 190 192 195 197 197 195 194 197 201 201 198 195 193 195 198 200 200 202 205 207 208 211 216 222 226 229 231 233 234 234 236 239 244 248 251 252 253 253 254 256 258 261 263 265 266 268 269 271 273 273 273 274 276 278 279 279 279
175 175 176 177 178 175 173 172 176 179 178 177 178 179 179 179 178 176 175 177 181 183 184 184 184 184 183 184 186 189 191 192 194 199 201 200 197 197 202 203 199 197 199 202 203 204 207 210 211 210 211 215 220 225 228 229 231 234 237 240 244 248 252 257 261 263 263 263 262 261 263 266 268 271 273 274 274 275 277 279 279 279 279 280 281 282 283
181 178 176 175 176 175 173 173 177 180 178 175 175 176 176 177 177 176 176 177 181 184 183 181 180 179 180 183 187 192 195 195 197 201 204 202 199 201 206 207 204 204 206 205 202 202 208 211 212 215 219 221 223 228 231 231 232 236 242 249 257 260 262 264 266 267 269 271 271 270 269 272 275 276 277 277 278 281 283 284 283 282 281 281 281 281 283
Height
1413 1412 1416 1418 1420 1422 1423 1425 1427 1426 1428 1431 1434 1437 1435 1433 1440 1441 1433 1434 1438 1436 1438 1444 1446 1451 1459 1461 1464 1468 1470 1473 1475 1476 1478 1481 1483 1486 1488 1491 1494 1496 1498 1502 1505 1505 1506 1510 1514 1517 1520 1522 1524 1526 1527 1528 1529 1529 1530 1531 1531 1532 1533 1533 1534 1534 1534 1535 1535 1535 1534 1534 1533 1532 1532 1532 1532 1532 1532 1531 1531 1531 1531 1530 1530 1530 1529
1419 1419 1420 1420 1420 1421 1421 1422 1423 1424 1426 1428 1432 1435 1434 1434 1438 1435 1432 1436 1436 1433 1435 1440 1445 1452 1458 1461 1465 1467 1469 1473 1475 1477 1479 1481 1484 1487 1489 1492 1495 1497 1500 1503 1504 1506 1508 1511 1514 1517 1520 1521 1522 1524 1526 1527 1528 1528 1529 1530 1530 1531 1533 1533 1534 1534 1535 1535 1535 1535 1535 1534 1533 1533 1533 1532 1532 1532 1532 1532 1531 1531 1531 1531 1530 1530 1529
1422 1422 1421 1421 1421 1421 1421 1421 1420 1421 1424 1426 1430 1432 1432 1436 1438 1436 1436 1437 1437 1437 1438 1441 1447 1454 1457 1461 1464 1466 1469 1472 1474 1477 1479 1481 1484 1487 1490 1493 1496 1498 1501 1503 1505 1507 1509 1511 1514 1517 1520 1521 1521 1523 1525 1526 1526 1528 1529 1530 1531 1532 1532 1533 1534 1535 1535 1535 1535 1535 1535 1534 1534 1533 1533 1533 1533 1533 1532 1532 1532 1532 1532 1531 1531 1530 1529
1423 1423 1423 1423 1422 1422 1424 1422 1419 1420 1423 1425 1428 1428 1429 1434 1436 1438 1441 1440 1436 1438 1441 1444 1450 1454 1457 1460 1463 1465 1468 1470 1473 1476 1478 1481 1485 1487 1490 1493 1495 1498 1501 1504 1508 1510 1511 1512 1515 1518 1519 1520 1521 1522 1524 1525 1526 1527 1529 1530 1531 1533 1533 1534 1535 1536 1536 1536 1536 1536 1535 1534 1534 1534 1534 1534 1533 1533 1532 1532 1532 1532 1532 1532 1531 1530 1530
1423 1423 1423 1422 1424 1429 1428 1421 1416 1417 1419 1422 1424 1425 1427 1430 1432 1436 1440 1436 1430 1434 1441 1446 1451 1454 1455 1458 1460 1463 1467 1469 1472 1475 1478 1482 1485 1487 1491 1493 1495 1499 1502 1505 1509 1512 1513 1514 1516 1518 1519 1520 1521 1522 1524 1525 1526 1528 1529 1530 1532 1533 1534 1535 1536 1536 1536 1536 1536 1536 1535 1535 1534 1535 1535 1534 1534 1533 1533 1533 1533 1533 1533 1532 1531 1531 1530
1423 1425 1423 1424 1430 1434 1430 1423 1420 1420 1420 1421 1423 1425 1427 1429 1430 1432 1434 1431 1430 1434 1439 1443 1447 1451 1454 1457 1460 1464 1466 1469 1473 1475 1478 1482 1484 1487 1491 1493 1497 1500 1503 1507 1510 1512 1514 1515 1516 1518 1519 1520 1521 1522 1524 1525 1527 1528 1529 1531 1532 1533 1534 1535 1536 1536 1536 1536 1536 1536 1535 1535 1535 1535 1535 1534 1534 1534 1534 1534 1535 1534 1533 1532 1531 1531 1530
1420 1423 1426 1433 1436 1431 1425 1426 1426 1425 1425 1425 1425 1427 1428 1428 1430 1432 1433 1432 1433 1436 1438 1442 1447 1451 1455 1459 1462 1465 1467 1470 1473 1476 1479 1482 1484 1487 1489 1492 1497 1501 1504 1507 1510 1512 1513 1515 1517 1519 1519 1520 1522 1523 1524 1526 1527 1529 1530 1531 1532 1534 1535 1535 1536 1536 1537 1537 1537 1536 1536 1536 1536 1536 1535 1535 1535 1535 1536 1536 1536 1535 1534 1533 1532 1531 1531
1420 1425 1429 1432 1430 1425 1425 1429 1429 1429 1430 1430 1432 1434 1431 1429 1430 1431 1431 1432 1435 1438 1441 1445 1449 1453 1457 1461 1463 1466 1468 1470 1473 1475 1478 1481 1484 1486 1489 1492 1496 1501 1504 1506 1509 1511 1513 1516 1518 1519 1519 1521 1522 1523 1525 1527 1528 1529 1530 1531 1533 1533 1534 1535 1536 1537 1537 1537 1537 1537 1537 1537 1536 1536 1536 1536 1536 1536 1536 1536 1535 1535 1534 1534 1533 1532 1532
1422 1424 1424 1422 1423 1424 1426 1426 1426 1428 1428 1426 1430 1432 1429 1426 1428 1429 1430 1432 1436 1439 1443 1446 1451 1454 1458 1462 1465 1466 1468 1471 1472 1474 1477 1480 1484 1487 1490 1494 1497 1501 1504 1506 1508 1511 1514 1517 1518 1519 1519 1521 1522 1523 1525 1527 1528 1529 1530 1532 1533 1533 1534 1534 1536 1537 1538 1538 1538 1537 1537 1537 1537 1537 1537 1537 1537 1537 1537 1536 1536 1535 1534 1534 1534 1533 1532
1421 1420 1420 1422 1426 1428 1424 1421 1420 1423 1424 1423 1425 1427 1425 1422 1425 1427 1428 1431 1434 1438 1443 1448 1452 1456 1459 1462 1463 1464 1467 1470 1473 1475 1478 1481 1484 1486 1490 1494 1497 1501 1503 1505 1508 1512 1514 1516 1517 1518 1519 1521 1522 1524 1525 1526 1528 1529 1530 1531 1532 1533 1534 1535 1536 1537 1538 1538 1538 1537 1537 1537 1537 1538 1538 1538 1538 1538 1537 1537 1536 1536 1536 1536 1535 1535 1533
1421 1420 1422 1423 1425 1424 1422 1421 1421 1423 1425 1424 1425 1430 1425 1418 1421 1426 1427 1429 1433 1435 1441 1447 1450 1453 1458 1459 1460 1462 1465 1468 1472 1475 1478 1481 1484 1487 1490 1493 1496 1499 1502 1505 1508 1511 1513 1515 1516 1518 1520 1521 1522 1524 1525 1526 1528 1529 1530 1531 1532 1533 1534 1535 1536 1536 1537 1537 1538 1538 1538 1538 1538 1539 1539 1539 1538 1538 1538 1538 1538 1538 1538 1537 1537 1536 1535
1419 1420 1420 1418 1417 1417 1418 1420 1421 1423 1424 1424 1429 1433 1423 1412 1416 1423 1424 1427 1431 1434 1439 1444 1445 1445 1447 1448 1452 1459 1464 1468 1472 1474 1476 1480 1484 1488 1491 1493 1496 1499 1503 1506 1508 1511 1513 1515 1516 1518 1520 1521 1523 1524 1525 1527 1528 1529 1530 1531 1532 1533 1534 1534 1535 1536 1537 1537 1538 1538 1538 1539 1539 1540 1539 1539 1539 1539 1539 1539 1539 1539 1539 1539 1538 1537 1537
1417 1420 1419 1416 1415 1415 1417 1420 1422 1423 1426 1427 1428 1427 1419 1413 1416 1420 1421 1425 1429 1432 1437 1440 1439 1439 1440 1441 1448 1458 1464 1467 1471 1473 1475 1479 1483 1486 1490 1493 1496 1500 1504 1506 1509 1511 1513 1515 1517 1518 1520 1521 1523 1524 1526 1527 1528 1529 1530 1531 1532 1534 1535 1535 1536 1536 1537 1538 1539 1539 1539 1539 1540 1540 1540 1540 1540 1540 1540 1541 1540 1540 1540 1540 1540 1539 1538
1414 1417 1417 1417 1416 1417 1418 1420 1422 1425 1427 1426 1422 1419 1419 1419 1419 1419 1422 1426 1429 1433 1437 1438 1439 1441 1441 1443 1448 1457 1463 1465 1468 1472 1475 1478 1482 1486 1490 1494 1497 1500 1503 1507 1509 1512 1514 1516 1517 1519 1520 1521 1523 1524 1526 1527 1528 1529 1530 1532 1534 1535 1535 1536 1536 1537 1538 1539 1540 1540 1540 1540 1541 1541 1541 1541 1541 1541 1542 1542 1542 1542 1542 1542 1542 1541 1540
1414 1417 1421 1422 1420 1418 1417 1419 1422 1425 1425 1422 1420 1420 1421 1421 1420 1422 1424 1427 1430 1434 1437 1439 1441 1442 1444 1447 1452 1457 1461 1463 1466 1471 1474 1478 1482 1487 1491 1495 1498 1500 1503 1507 1510 1512 1514 1516 1517 1519 1520 1522 1523 1525 1526 1527 1528 1530 1531 1533 1535 1535 1536 1536 1537 1538 1539 1540 1541 1542 1541 1542 1542 1542 1542 1543 1543 1544 1544 1544 1544 1543 1543 1544 1543 1543 1542
1413 1418 1419 1418 1417 1415 1416 1417 1420 1422 1422 1422 1422 1422 1421 1422 1423 1424 1425 1427 1431 1434 1436 1439 1441 1442 1446 1450 1453 1455 1459 1463 1467 1472 1476 1480 1484 1488 1491 1495 1498 1501 1504 1507 1510 1512 1514 1516 1518 1520 1521 1522 1524 1525 1526 1527 1529 1531 1533 1534 1535 1536 1536 1537 1538 1540 1541 1542 1543 1543 1543 1543 1543 1543 1544 1545 1545 1546 1546 1546 1545 1545 1545 1546 1545 1545 1544
1410 1413 1414 1415 1416 1417 1418 1419 1420 1421 1423 1423 1424 1424 1423 1423 1424 1424 1425 1428 1431 1434 1436 1439 1441 1443 1447 1451 1454 1455 1458 1463 1468 1472 1477 1481 1485 1488 1492 1495 1499 1502 1504 1506 1509 1512 1514 1516 1518 1520 1522 1523 1524 1526 1527 1528 1530 1532 1533 1535 1536 1537 1537 1538 1540 1541 1543 1544 1544 1544 1544 1545 1545 1546 1546 1547 1547 1547 1547 1547 1547 1547 1547 1547 1547 1546 1545
1410 1414 1416 1418 1419 1419 1420 1421 1421 1422 1423 1424 1425 1425 1425 1424 1425 1426 1427 1428 1431 1434 1436 1438 1441 1444 1447 1451 1455 1457 1460 1465 1470 1474 1478 1483 1486 1489 1492 1495 1499 1502 1505 1507 1509 1512 1514 1517 1519 1521 1523 1524 1525 1526 1528 1529 1531 1533 1534 1535 1537 1538 1539 1540 1542 1543 1544 1545 1545 1545 1546 1546 1547 1548 1548 1548 1549 1549 1548 1548 1548 1548 1549 1549 1548 1547 1547
1411 1414 1416 1418 1419 1420 1421 1422 1423 1423 1424 1425 1426 1426 1426 1425 1426 1426 1427 1429 1432 1435 1436 1439 1442 1445 1447 1451 1455 1458 1461 1466 1470 1475 1479 1483 1487 1490 1493 1495 1499 1502 1504 1507 1509 1512 1515 1517 1519 1521 1523 1525 1526 1527 1529 1531 1532 1534 1535 1536 1538 1539 1540 1542 1543 1545 1545 1546 1546 1547 1548 1549 1549 1550 1550 1549 1549 1549 1550 1550 1550 1550 1550 1549 1549 1549 1548
1411 1413 1416 1419 1421 1422 1422 1422 1423 1424 1425 1425 1425 1426 1426 1426 1427 1427 1428 1430 1432 1435 1437 1439 1443 1446 1449 1452 1454 1457 1461 1465 1470 1475 1479 1482 1487 1490 1493 1496 1499 1502 1504 1507 1509 1512 1515 1518 1520 1522 1524 1525 1527 1528 1530 1532 1534 1535 1536 1538 1539 1540 1542 1543 1544 1545 1546 1547 1548 1549 1549 1550 1550 1550 1550 1550 1550 1549 1549 1550 1550 1551 1551 1550 1549 1549 1549
1410 1412 1416 1419 1419 1420 1421 1422 1423 1424 1425 1425 1426 1426 1427 1427 1427 1428 1430 1431 1433 1436 1438 1440 1443 1446 1449 1451 1453 1456 1461 1465 1470 1475 1479 1482 1486 1490 1493 1496 1499 1502 1505 1507 1509 1513 1516 1518 1521 1523 1524 1526 1528 1530 1532 1533 1534 1535 1537 1538 1540 1542 1543 1544 1545 1546 1547 1549 1549 1550 1550 1550 1550 1550 1550 1551 1551 1550 1550 1550 1550 1550 1550 1550 1550 1550 1549
1410 1410 1412 1415 1415 1415 1418 1421 1423 1424 1425 1426 1426 1427 1427 1428 1428 1429 1431 1432 1434 1436 1439 1441 1443 1446 1449 1451 1453 1456 1461 1465 1470 1474 1479 1483 1487 1490 1493 1497 1500 1503 1505 1508 1510 1513 1517 1519 1522 1524 1525 1527 1529 1531 1533 1534 1535 1536 1538 1539 1541 1543 1544 1545 1546 1548 1549 1550 1551 1551 1552 1551 1551 1551 1551 1551 1552 1552 1552 1552 1552 1551 1551 1551 1550 1550 1550
1413 1413 1414 1414 1414 1415 1418 1421 1423 1424 1425 1427 1427 1428 1428 1428 1429 1430 1431 1432 1434 1436 1439 1442 1444 1445 1448 1451 1453 1457 1462 1466 1471 1475 1479 1482 1486 1490 1493 1497 1500 1503 1506 1509 1511 1514 1517 1520 1522 1524 1526 1529 1531 1532 1534 1535 1536 1537 1539 1541 1542 1543 1545 1546 1547 1548 1550 1551 1552 1553 1553 1554 1554 1554 1554 1554 1554 1554 1554 1554 1553 1553 1553 1552 1551 1551 1550
1416 1416 1416 1416 1416 1417 1420 1422 1423 1424 1426 1428 1428 1428 1428 1429 1430 1431 1432 1433 1435 1436 1439 1443 1445 1446 1448 1451 1454 1458 1462 1467 1471 1475 1479 1483 1486 1490 1494 1497 1500 1503 1506 1509 1512 1515 1518 1521 1523 1525 1527 1530 1531 1533 1534 1535 1537 1539 1540 1541 1543 1544 1545 1546 1547 1549 1551 1552 1553 1554 1555 1556 1556 1556 1556 1556 1556 1556 1556 1555 1555 1555 1554 1554 1553 1552 1551
1418 1418 1418 1418 1418 1419 1421 1423 1424 1425 1426 1428 1428 1429 1429 1430 1431 1432 1433 1434 1436 1438 1440 1443 1445 1446 1448 1451 1455 1458 1463 1468 1471 1475 1479 1484 1488 1491 1494 1498 1501 1504 1507 1510 1513 1516 1519 1521 1523 1526 1528 1530 1532 1534 1535 1536 1538 1539 1541 1542 1543 1544 1545 1546 1548 1550 1551 1552 1554 1555 1556 1557 1558 1558 1558 1558 1558 1558 1557 1557 1557 1557 1556 1555 1555 1554 1553
1420 1419 1419 1419 1420 1421 1422 1423 1425 1425 1426 1428 1429 1429 1430 1431 1432 1433 1434 1435 1437 1439 1441 1443 1446 1448 1450 1452 1456 1459 1463 1467 1472 1476 1479 1483 1488 1492 1495 1498 1501 1505 1508 1511 1514 1517 1519 1521 1524 1526 1529 1531 1532 1534 1536 1537 1539 1540 1541 1542 1543 1544 1546 1547 1549 1551 1552 1554 1555 1556 1557 1558 1558 1559 1559 1560 1560 1560 1559 1559 1559 1559 1558 1557 1556 1555 1554
1420 1421 1420 1420 1421 1422 1423 1423 1425 1426 1427 1428 1429 1430 1431 1432 1432 1433 1434 1436 1438 1440 1442 1443 1445 1449 1452 1454 1458 1462 1465 1468 1472 1477 1480 1484 1488 1492 1495 1499 1502 1505 1508 1511 1514 1517 1520 1522 1525 1527 1529 1531 1532 1534 1536 1538 1539 1540 1542 1542 1543 1544 1546 1548 1550 1552 1553 1554 1555 1556 1557 1558 1558 1559 1560 1560 1561 1561 1561 1561 1561 1561 1560 1559 1558 1557 1556
1422 1422 1421 1421 1421 1423 1423 1424 1426 1427 1428 1429 1430 1431 1432 1432 1433 1434 1435 1437 1439 1441 1443 1445 1447 1450 1454 1457 1459 1464 1470 1474 1477 1479 1481 1484 1489 1492 1496 1500 1503 1506 1509 1512 1515 1517 1520 1523 1525 1528 1529 1531 1533 1534 1536 1538 1539 1541 1542 1543 1544 1545 1547 1549 1551 1552 1553 1555 1556 1557 1558 1558 1559 1560 1560 1561 1561 1562 1562 1562 1562 1562 1562 1561 1559 1558 1557
1423 1422 1422 1422 1423 1424 1425 1426 1427 1429 1429 1430 1431 1432 1432 1433 1434 1435 1436 1438 1440 1442 1445 1448 1450 1452 1456 1460 1462 1465 1470 1476 1480 1482 1484 1487 1491 1494 1498 1502 1505 1508 1511 1513 1516 1518 1521 1524 1526 1528 1530 1531 1533 1535 1537 1538 1540 1542 1543 1544 1545 1546 1548 1550 1551 1552 1554 1555 1556 1557 1558 1559 1560 1561 1561 1562 1562 1562 1563 1563 1563 1563 1562 1562 1560 1559 1558
1423 1423 1424 1424 1425 1425 1427 1428 1429 1430 1431 1431 1432 1433 1434 1434 1435 1436 1438 1440 1442 1443 1446 1449 1452 1455 1458 1462 1466 1469 1472 1476 1480 1484 1486 1489 1493 1496 1500 1503 1505 1508 1511 1514 1516 1519 1522 1524 1527 1528 1530 1531 1533 1535 1537 1539 1541 1542 1544 1545 1546 1547 1548 1550 1551 1553 1554 1555 1556 1557 1558 1560 1561 1561 1562 1562 1562 1563 1563 1563 1563 1563 1563 1562 1562 1561 1560
1425 1425 1425 1426 1427 1428 1428 1429 1430 1431 1432 1432 1433 1434 1435 1435 1436 1437 1439 1441 1443 1445 1448 1451 1453 1456 1459 1463 1467 1471 1475 1478 1482 1485 1487 1491 1494 1497 1500 1503 1505 1507 1510 1514 1517 1519 1522 1525 1527 1529 1530 1532 1534 1535 1537 1539 1541 1543 1544 1545 1546 1547 1548 1549 1552 1554 1555 1555 1556 1558 1559 1561 1561 1562 1562 1562 1563 1563 1563 1563 1563 1563 1563 1563 1562 1562 1561
1426 1427 1427 1428 1429 1429 1430 1431 1431 1432 1433 1434 1435 1436 1436 1437 1437 1439 1440 1442 1445 1447 1449 1452 1454 1457 1461 1464 1468 1472 1476 1480 1483 1485 1488 1492 1495 1498 1501 1503 1506 1508 1511 1514 1517 1520 1522 1525 1527 1529 1530 1532 1534 1536 1538 1539 1541 1543 1545 1546 1546 1547 1548 1550 1552 1554 1555 1556 1558 1559 1560 1561 1561 1562 1562 1563 1563 1563 1563 1563 1563 1563 1563 1563 1562 1562 1561
1426 1427 1428 1429 1429 1430 1431 1432 1432 1433 1434 1435 1436 1437 1437 1438 1439 1440 1442 1444 1446 1449 1451 1453 1455 1458 1462 1465 1469 1472 1476 1479 1483 1486 1489 1492 1496 1499 1502 1505 1508 1510 1513 1515 1518 1520 1523 1525 1527 1529 1530 1532 1534 1536 1538 1540 1542 1544 1545 1546 1548 1549 1549 1551 1553 1555 1556 1557 1558 1560 1560 1561 1561 1562 1562 1563 1563 1563 1563 1563 1563 1563 1562 1562 1562 1561 1560
1427 1427 1428 1429 1430 1430 1431 1432 1433 1434 1435 1436 1436 1437 1438 1439 1440 1441 1442 1444 1447 1449 1451 1453 1456 1459 1463 1466 1469 1472 1476 1479 1482 1486 1489 1493 1497 1500 1503 1506 1509 1511 1513 1516 1519 1521 1523 1525 1527 1529 1531 1533 1534 1536 1538 1540 1542 1544 1546 1547 1548 1549 1550 1552 1553 1555 1557 1558 1559 1559 1560 1560 1561 1562 1562 1562 1562 1563 1563 1562 1562 1562 1562 1562 1562 1561 1560
1429 1429 1430 1430 1431 1431 1431 1433 1434 1435 1436 1436 1437 1438 1439 1440 1441 1442 1444 1446 1448 1449 1452 1454 1457 1461 1464 1467 1470 1473 1477 1480 1483 1486 1490 1494 1497 1501 1503 1506 1509 1511 1514 1517 1519 1521 1523 1525 1527 1528 1531 1533 1534 1536 1538 1541 1543 1544 1546 1547 1549 1550 1551 1553 1554 1555 1557 1558 1558 1559 1560 1560 1561 1561 1561 1561 1562 1562 1562 1562 1561 1561 1561 1561 1561 1560 1559
1430 1431 1431 1432 1432 1432 1433 1434 1435 1436 1436 1437 1438 1439 1440 1441 1443 1444 1446 1448 1449 1451 1454 1457 1460 1463 1466 1469 1472 1475 1478 1481 1484 1487 1490 1494 1498 1501 1503 1506 1509 1512 1515 1517 1519 1521 1523 1525 1526 1528 1530 1532 1534 1536 1538 1541 1543 1544 1546 1547 1549 1550 1552 1553 1554 1555 1556 1557 1558 1559 1559 1559 1560 1560 1560 1560 1561 1561 1561 1561 1561 1560 1560 1560 1560 1559 1559
1431 1432 1432 1432 1433 1433 1434 1435 1436 1436 1437 1438 1439 1441 1442 1443 1445 1446 1448 1450 1451 1453 1456 1458 1461 1464 1468 1472 1475 1477 1480 1483 1486 1488 1491 1495 1498 1501 1504 1507 1510 1512 1515 1517 1519 1521 1522 1523 1525 1527 1530 1532 1534 1536 1538 1540 1543 1544 1546 1547 1549 1551 1552 1553 1554 1555 1556 1556 1557 1558 1558 1558 1559 1559 1559 1559 1560 1560 1560 1560 1559 1559 1559 1559 1558 1558 1558
1432 1433 1433 1434 1434 1434 1435 1436 1436 1437 1438 1439 1440 1442 1443 1444 1446 1448 1449 1451 1453 1455 1458 1460 1462 1465 1469 1473 1476 1479 1482 1484 1487 1490 1493 1496 1499 1502 1505 1507 1510 1512 1514 1516 1518 1520 1521 1522 1524 1528 1530 1532 1534 1536 1537 1539 1542 1544 1546 1547 1549 1550 1551 1552 1553 1554 1555 1556 1556 1557 1557 1558 1558 1558 1558 1559 1559 1559 1559 1558 1558 1558 1558 1558 1557 1557 1556
1433 1434 1434 1435 1435 1436 1436 1437 1438 1439 1440 1441 1442 1443 1444 1446 1447 1449 1450 1452 1455 1457 1459 1461 1464 1467 1470 1474 1477 1480 1483 1486 1488 1491 1494 1497 1500 1503 1506 1508 1511 1513 1514 1515 1517 1518 1520 1521 1524 1528 1530 1532 1534 1536 1537 1539 1541 1544 1546 1547 1548 1550 1551 1552 1552 1553 1554 1555 1555 1556 1556 1556 1557 1557 1557 1557 1557 1557 1557 1557 1557 1557 1556 1556 1556 1555 1555
1434 1435 1435 1436 1437 1438 1438 1439 1440 1440 1441 1442 1443 1444 1445 1446 1448 1450 1452 1454 1456 1458 1460 1462 1465 1469 1472 1475 1478 1481 1484 1487 1490 1493 1496 1498 1501 1504 1507 1509 1511 1513 1513 1515 1516 1518 1519 1521 1525 1528 1530 1532 1534 1536 1538 1539 1541 1543 1545 1547 1548 1549 1550 1551 1552 1552 1553 1553 1554 1554 1555 1555 1555 1556 1556 1556 1556 1556 1556 1556 1555 1555 1555 1555 1554 1554 1554
1435 1435 1436 1437 1438 1439 1440 1441 1441 1442 1442 1443 1444 1445 1446 1448 1449 1451 1453 1455 1457 1459 1462 1464 1467 1470 1473 1476 1479 1482 1484 1488 1491 1494 1496 1499 1501 1504 1507 1509 1510 1512 1513 1515 1517 1518 1520 1522 1525 1528 1530 1532 1535 1536 1538 1539 1541 1543 1545 1546 1547 1548 1549 1550 1550 1551 1552 1552 1553 1553 1553 1554 1554 1554 1554 1554 1554 1554 1554 1554 1554 1554 1554 1553 1553 1552 1552
1435 1436 1437 1438 1439 1440 1441 1442 1442 1443 1443 1445 1446 1447 1448 1449 1451 1452 1454 1456 1458 1460 1463 1467 1469 1472 1474 1477 1480 1482 1485 1488 1491 1494 1497 1499 1501 1504 1506 1508 1509 1511 1513 1515 1517 1519 1521 1523 1526 1528 1531 1532 1534 1536 1537 1539 1541 1542 1544 1545 1546 1547 1547 1548 1549 1549 1550 1551 1551 1551 1552 1552 1552 1552 1552 1553 1553 1553 1553 1552 1552 1552 1552 1552 1551 1551 1550
1436 1437 1438 1439 1440 1441 1442 1443 1443 1444 1444 1446 1447 1449 1450 1451 1453 1454 1456 1458 1460 1462 1465 1468 1471 1473 1475 1478 1480 1483 1486 1489 1491 1494 1497 1500 1503 1505 1506 1508 1509 1511 1513 1515 1517 1520 1522 1524 1526 1528 1530 1532 1534 1535 1537 1539 1540 1542 1543 1544 1545 1545 1546 1547 1547 1548 1549 1549 1549 1550 1550 1550 1550 1550 1551 1551 1551 1551 1551 1550 1550 1550 1550 1549 1549 1549 1548
1436 1437 1438 1439 1440 1442 1443 1444 1444 1445 1445 1447 1448 1450 1451 1452 1454 1455 1457 1459 1462 1464 1466 1468 1471 1474 1476 1479 1481 1484 1486 1488 1491 1494 1497 1501 1503 1506 1507 1508 1510 1511 1514 1516 1518 1520 1522 1524 1526 1528 1529 1531 1533 1535 1536 1538 1540 1541 1542 1542 1543 1544 1544 1545 1546 1546 1547 1547 1547 1548 1548 1548 1548 1548 1548 1548 1548 1548 1548 1548 1548 1548 1548 1547 1547 1546 1546
1436 1438 1439 1440 1441 1442 1443 1445 1446 1446 1446 1448 1449 1451 1452 1454 1455 1457 1459 1461 1463 1464 1466 1469 1472 1474 1477 1479 1482 1484 1486 1489 1491 1494 1496 1499 1502 1504 1506 1508 1509 1511 1514 1516 1518 1521 1522 1524 1525 1527 1528 1530 1532 1534 1536 1537 1538 1539 1540 1541 1542 1542 1543 1543 1544 1544 1544 1545 1545 1546 1546 1546 1546 1546 1546 1546 1546 1546 1546 1546 1546 1546 1545 1545 1544 1544 1544
1437 1438 1439 1440 1442 1443 1444 1445 1446 1447 1448 1448 1450 1451 1453 1454 1456 1458 1460 1461 1463 1466 1468 1470 1473 1475 1478 1480 1483 1485 1488 1490 1493 1495 1497 1499 1502 1503 1505 1507 1509 1511 1514 1516 1518 1520 1522 1523 1524 1526 1528 1530 1531 1533 1535 1536 1537 1538 1538 1539 1540 1540 1541 1541 1541 1542 1542 1543 1543 1543 1544 1544 1544 1544 1544 1544 1543 1543 1543 1543 1543 1543 1543 1542 1542 1541 1541
1438 1439 1440 1441 1442 1443 1444 1446 1447 1448 1449 1450 1451 1452 1453 1455 1457 1458 1460 1462 1464 1466 1469 1471 1474 1476 1478 1480 1483 1485 1488 1490 1493 1496 1498 1501 1503 1504 1506 1507 1510 1512 1514 1516 1518 1519 1520 1522 1524 1525 1527 1529 1530 1532 1533 1534 1535 1536 1536 1537 1537 1538 1538 1539 1539 1539 1540 1540 1540 1541 1541 1541 1541 1541 1541 1541 1541 1541 1541 1540 1540 1540 1540 1539 1539 1538 1538
1438 1439 1440 1441 1442 1444 1445 1446 1447 1448 1449 1450 1452 1453 1454 1456 1457 1459 1461 1463 1465 1467 1469 1471 1474 1476 1478 1481 1483 1486 1488 1490 1492 1495 1498 1500 1502 1503 1505 1507 1509 1511 1513 1515 1517 1518 1519 1521 1523 1524 1526 1527 1529 1530 1531 1532 1533 1533 1534 1535 1535 1536 1536 1537 1537 1537 1538 1538 1538 1538 1538 1538 1538 1538 1538 1538 1538 1538 1538 1537 1537 1537 1537 1536 1536 1535 1535
1439 1440 1441 1441 1443 1444 1445 1446 1447 1449 1450 1451 1452 1453 1454 1456 1458 1460 1462 1463 1465 1467 1469 1472 1474 1476 1479 1481 1484 1486 1489 1491 1493 1495 1497 1499 1501 1503 1504 1506 1508 1510 1512 1514 1515 1517 1518 1520 1522 1523 1524 1526 1527 1528 1529 1530 1531 1531 1531 1532 1533 1533 1534 1534 1535 1535 1535 1536 1536 1536 1536 1536 1536 1536 1535 1535 1535 1535 1535 1534 1534 1533 1533 1533 1532 1532 1531
1440 1440 1441 1442 1443 1444 1445 1447 1448 1449 1450 1451 1452 1453 1455 1456 1458 1460 1462 1464 1466 1468 1470 1472 1474 1476 1479 1482 1484 1487 1489 1492 1494 1495 1497 1499 1501 1503 1504 1505 1507 1509 1511 1513 1514 1516 1517 1519 1520 1521 1523 1524 1525 1526 1527 1528 1528 1529 1529 1530 1530 1531 1531 1531 1532 1532 1532 1532 1533 1533 1533 1533 1533 1533 1532 1532 1532 1531 1531 1531 1530 1529 1529 1528 1528 1527 1526
1440 1441 1442 1443 1444 1445 1446 1447 1449 1450 1450 1451 1452 1453 1455 1456 1458 1460 1462 1464 1466 1468 1470 1472 1474 1476 1479 1482 1484 1487 1489 1491 1493 1495 1496 1498 1500 1502 1503 1504 1506 1508 1510 1512 1513 1515 1516 1517 1518 1520 1521 1522 1523 1524 1525 1525 1526 1527 1527 1527 1528 1528 1529 1529 1529 1529 1529 1529 1530 1530 1530 1530 1530 1530 1529 1529 1528 1528 1527 1526 1526 1525 1524 1524 1523 1523 1522
1440 1442 1443 1444 1445 1446 1447 1448 1449 1450 1451 1452 1453 1454 1455 1456 1458 1460 1462 1464 1465 1467 1469 1471 1473 1476 1478 1481 1483 1486 1488 1490 1492 1494 1495 1497 1499 1500 1501 1503 1505 1507 1508 1510 1512 1514 1515 1516 1517 1518 1519 1520 1521 1522 1523 1523 1524 1524 1525 1525 1525 1526 1526 1526 1526 1526 1526 1526 1526 1527 1527 1527 1526 1526 1526 1525 1525 1524 1523 1522 1522 1521 1520 1520 1519 1519 1518